Location: Newark
(36.0797°N, 3.9744°E)
Time: 11:20:08
(UTC+00:00)

Courier 1B - Visible Passes

Search period start: 15 December 2019 00:00
Search period end: 25 December 2019 00:00
Orbit: 963 x 1209 km, 28.3° (Epoch: 14 December)

Date Brightness Start Highest point End Pass type
(mag) Time Alt. Az. Time Alt. Az. Time Alt. Az.
15 Dec 9.3 17:23:39 10° SSW 17:28:20 20° SSE 17:33:12 10° ESE visible
15 Dec 8.6 19:15:19 10° SW 19:20:48 38° S 19:20:48 38° S visible
16 Dec 8.6 18:22:00 10° SW 18:28:00 34° SSE 18:30:24 27° SE visible
16 Dec 9.6 20:14:57 10° WSW 20:17:17 22° WSW 20:17:17 22° WSW visible
17 Dec 8.9 17:28:49 10° SW 17:34:23 28° SSE 17:40:00 11° ESE visible
17 Dec 8.4 19:21:25 10° WSW 19:26:54 42° SSW 19:26:54 42° SSW visible
18 Dec 8.4 18:27:56 10° WSW 18:34:11 41° S 18:36:30 32° SE visible
18 Dec 9.7 20:21:19 10° WSW 20:23:24 20° WSW 20:23:24 20° WSW visible
19 Dec 8.6 17:34:33 10° SW 17:40:32 37° SSE 17:46:07 13° ESE visible
19 Dec 8.5 19:27:42 10° WSW 19:33:00 42° SSW 19:33:00 42° SSW visible
20 Dec 8.3 18:34:08 10° WSW 18:40:26 44° S 18:42:38 35° SE visible
20 Dec 9.8 20:27:49 10° WSW 20:29:32 18° WSW 20:29:32 18° WSW visible
21 Dec 8.4 17:40:38 10° WSW 17:46:46 42° S 17:52:18 14° ESE visible
21 Dec 8.6 19:34:08 10° WSW 19:39:12 38° SSW 19:39:12 38° SSW visible
22 Dec 8.4 18:40:30 10° WSW 18:46:43 43° S 18:48:54 33° SE visible
22 Dec 10.0 20:34:33 10° WSW 20:35:49 15° WSW 20:35:49 15° WSW visible
23 Dec 8.4 17:46:54 10° WSW 17:53:03 44° S 17:58:39 14° ESE visible
23 Dec 8.9 19:40:44 10° WSW 19:45:33 31° SSW 19:45:33 31° SSW visible
24 Dec 8.5 16:53:20 10° WSW 16:59:25 43° S 17:05:42 10° ESE visible
24 Dec 8.6 18:47:00 10° WSW 18:52:58 36° SSW 18:55:22 28° SSE visible
24 Dec 10.2 20:41:46 10° WSW 20:42:17 12° WSW 20:42:17 12° WSW visible
